When you browse on this site, cookies collect data to enhance your experience and personalize the content and advertising you see.
Visit our Privacy Policy to learn more. By continuing to use the site, you agree to this use of cookies and data.
  • En España
  • Lista de países
  • Para 7 días
  • Temperatura del agua
  • El tiempo en el mapa
  • Informadores
  • user-avatar
    Iniciar sesión

    Tiempo cada hora Shusha

    Hoy, 4 Abril, Sábado

    Tiempo Temperatura Precipitaciones Viento Presión Humedad
    00:00 +7°C° 0 mm 1 mps 657 mmHg 96%
    01:00 +7°C° 0 mm 1 mps 657 mmHg 96%
    02:00 +7°C° 0 mm 1 mps 657 mmHg 96%
    03:00 +7°C° 0 mm 1 mps 656 mmHg 97%
    04:00 +7°C° 0.3 mm 1 mps 656 mmHg 97%
    05:00 +7°C° 0.3 mm 1 mps 656 mmHg 97%
    06:00 +6°C° 0.3 mm 1 mps 657 mmHg 97%
    07:00 +6°C° 0.9 mm 1 mps 657 mmHg 97%
    08:00 +6°C° 0.9 mm 1 mps 657 mmHg 96%
    09:00 +5°C° 0 mm 2 mps 657 mmHg 96%
    10:00 +6°C° 1 mm 2 mps 657 mmHg 95%
    11:00 +6°C° 1 mm 2 mps 658 mmHg 94%
    12:00 +6°C° 1 mm 2 mps 658 mmHg 92%
    13:00 +5°C° 1.3 mm 2 mps 658 mmHg 93%
    14:00 +5°C° 1.3 mm 2 mps 658 mmHg 93%
    15:00 +5°C° 1.3 mm 2 mps 658 mmHg 94%
    16:00 +5°C° 0.9 mm 2 mps 659 mmHg 95%
    17:00 +5°C° 0.9 mm 1 mps 659 mmHg 96%
    18:00 +5°C° 0.9 mm 1 mps 659 mmHg 97%
    19:00 +5°C° 0.5 mm 1 mps 660 mmHg 96%
    20:00 +5°C° 0.5 mm 1 mps 661 mmHg 96%
    21:00 +4°C° 0.5 mm 0 mps 661 mmHg 96%
    22:00 +5°C° 0.1 mm 1 mps 661 mmHg 95%
    23:00 +5°C° 0.1 mm 1 mps 662 mmHg 93%

    Mañana, 5 Abril, Domingo

    Tiempo Temperatura Precipitaciones Viento Presión Humedad
    00:00 +5°C° 0.1 mm 1 mps 662 mmHg 91%
    01:00 +5°C° 0 mm 1 mps 662 mmHg 90%
    02:00 +4°C° 0 mm 1 mps 662 mmHg 88%
    03:00 +4°C° 0 mm 1 mps 661 mmHg 86%
    04:00 +4°C° 0 mm 1 mps 662 mmHg 85%
    05:00 +4°C° 0 mm 1 mps 662 mmHg 84%
    06:00 +4°C° 0 mm 1 mps 662 mmHg 82%
    07:00 +6°C° 0 mm 1 mps 663 mmHg 77%
    08:00 +8°C° 0 mm 1 mps 663 mmHg 72%
    09:00 +10°C° 0 mm 1 mps 663 mmHg 67%
    10:00 +11°C° 0 mm 1 mps 663 mmHg 66%
    11:00 +12°C° 0 mm 2 mps 663 mmHg 66%
    12:00 +13°C° 0 mm 2 mps 663 mmHg 65%
    13:00 +13°C° 0 mm 2 mps 663 mmHg 65%
    14:00 +13°C° 0 mm 2 mps 662 mmHg 66%
    15:00 +13°C° 0 mm 2 mps 662 mmHg 67%
    16:00 +12°C° 0 mm 2 mps 661 mmHg 72%
    17:00 +11°C° 0 mm 1 mps 661 mmHg 78%
    18:00 +11°C° 0 mm 1 mps 660 mmHg 83%
    19:00 +10°C° 0 mm 1 mps 660 mmHg 85%
    20:00 +9°C° 0 mm 1 mps 660 mmHg 86%
    21:00 +8°C° 0 mm 1 mps 660 mmHg 88%
    22:00 +8°C° 0 mm 1 mps 660 mmHg 86%
    23:00 +8°C° 0 mm 1 mps 659 mmHg 83%

    Pasado mañana, 6 Abril, Lunes

    Tiempo Temperatura Precipitaciones Viento Presión Humedad
    00:00 +7°C° 0 mm 1 mps 659 mmHg 81%
    01:00 +7°C° 0 mm 1 mps 659 mmHg 79%
    02:00 +7°C° 0 mm 1 mps 658 mmHg 77%
    03:00 +7°C° 0 mm 1 mps 658 mmHg 75%
    04:00 +7°C° 0 mm 1 mps 658 mmHg 74%
    05:00 +7°C° 0 mm 1 mps 658 mmHg 73%
    06:00 +7°C° 0 mm 1 mps 658 mmHg 72%
    07:00 +9°C° 0 mm 1 mps 659 mmHg 69%
    08:00 +11°C° 0 mm 1 mps 659 mmHg 66%
    09:00 +12°C° 0 mm 2 mps 660 mmHg 64%
    10:00 +12°C° 0.3 mm 2 mps 660 mmHg 68%
    11:00 +12°C° 0.3 mm 2 mps 660 mmHg 72%
    12:00 +12°C° 0.3 mm 2 mps 660 mmHg 77%
    13:00 +12°C° 0.8 mm 2 mps 660 mmHg 81%
    14:00 +10°C° 0.8 mm 2 mps 660 mmHg 86%
    15:00 +9°C° 0.8 mm 2 mps 659 mmHg 91%
    16:00 +9°C° 0.7 mm 2 mps 659 mmHg 93%
    17:00 +8°C° 0.7 mm 2 mps 660 mmHg 94%
    18:00 +7°C° 0.7 mm 3 mps 660 mmHg 96%
    19:00 +5°C° 0.6 mm 3 mps 660 mmHg 96%
    20:00 +4°C° 0.6 mm 3 mps 660 mmHg 96%
    21:00 +3°C° 0.6 mm 3 mps 660 mmHg 96%
    22:00 +2°C° 0.9 mm 3 mps 660 mmHg 95%
    23:00 +1°C° 0.9 mm 3 mps 660 mmHg 95%

    7 Abril, Martes

    Tiempo Temperatura Precipitaciones Viento Presión Humedad
    00:00 -1°C° 0.9 mm 4 mps 660 mmHg 95%
    01:00 0°C° 0.7 mm 3 mps 660 mmHg 96%
    02:00 -1°C° 0.7 mm 3 mps 660 mmHg 96%
    03:00 -1°C° 0.7 mm 3 mps 660 mmHg 96%
    04:00 -2°C° 0.8 mm 3 mps 661 mmHg 96%
    05:00 -2°C° 0.8 mm 3 mps 661 mmHg 96%
    06:00 -2°C° 0.8 mm 3 mps 661 mmHg 96%
    07:00 -2°C° 1.1 mm 3 mps 661 mmHg 96%
    08:00 -2°C° 1.1 mm 2 mps 661 mmHg 95%
    09:00 -2°C° 1.1 mm 2 mps 662 mmHg 95%
    10:00 -2°C° 0.9 mm 2 mps 662 mmHg 95%
    11:00 -2°C° 0.9 mm 2 mps 662 mmHg 94%
    12:00 -2°C° 0.9 mm 2 mps 662 mmHg 94%
    13:00 -2°C° 0.3 mm 2 mps 662 mmHg 94%
    14:00 -2°C° 0.3 mm 2 mps 661 mmHg 94%
    15:00 0°C° 0.3 mm 1 mps 661 mmHg 94%
    16:00 0°C° 0.3 mm 1 mps 661 mmHg 95%
    17:00 0°C° 0.3 mm 1 mps 661 mmHg 96%
    18:00 0°C° 0.3 mm 1 mps 661 mmHg 97%
    19:00 0°C° 0.2 mm 1 mps 662 mmHg 97%
    20:00 -1°C° 0.2 mm 1 mps 662 mmHg 97%
    21:00 -1°C° 0.2 mm 1 mps 663 mmHg 97%
    22:00 -1°C° 0.5 mm 1 mps 663 mmHg 97%
    23:00 -1°C° 0.5 mm 1 mps 663 mmHg 98%

    8 Abril, Miércoles

    Tiempo Temperatura Precipitaciones Viento Presión Humedad
    00:00 -1°C° 0.5 mm 1 mps 663 mmHg 98%
    01:00 -3°C° 0.5 mm 2 mps 663 mmHg 97%
    02:00 -4°C° 0.5 mm 2 mps 663 mmHg 97%
    03:00 -4°C° 0.5 mm 2 mps 664 mmHg 97%
    04:00 -4°C° 0.2 mm 2 mps 664 mmHg 96%
    05:00 -5°C° 0.2 mm 2 mps 664 mmHg 96%
    06:00 -5°C° 0.2 mm 2 mps 664 mmHg 95%
    07:00 -4°C° 0.1 mm 2 mps 664 mmHg 93%
    08:00 -4°C° 0.1 mm 2 mps 664 mmHg 91%
    09:00 -3°C° 0.1 mm 2 mps 665 mmHg 89%
    10:00 -2°C° 0.2 mm 2 mps 664 mmHg 89%
    11:00 -2°C° 0.2 mm 2 mps 664 mmHg 89%
    12:00 -1°C° 0.2 mm 2 mps 664 mmHg 89%
    13:00 -1°C° 0.1 mm 2 mps 663 mmHg 90%
    14:00 -1°C° 0.1 mm 2 mps 662 mmHg 90%
    15:00 -1°C° 0.1 mm 2 mps 662 mmHg 91%
    16:00 +1°C° 0.1 mm 1 mps 662 mmHg 92%
    17:00 +1°C° 0.1 mm 1 mps 661 mmHg 93%
    18:00 +1°C° 0.1 mm 1 mps 661 mmHg 94%
    19:00 0°C° 0 mm 1 mps 661 mmHg 94%
    20:00 0°C° 0 mm 1 mps 661 mmHg 95%
    21:00 -1°C° 0 mm 0 mps 661 mmHg 95%
    22:00 -1°C° 0 mm 0 mps 661 mmHg 94%
    23:00 -1°C° 0 mm 0 mps 661 mmHg 94%

    9 Abril, Jueves

    Tiempo Temperatura Precipitaciones Viento Presión Humedad
    00:00 -2°C° 0 mm 0 mps 660 mmHg 93%
    01:00 -2°C° 0 mm 0 mps 660 mmHg 93%
    02:00 -2°C° 0 mm 0 mps 659 mmHg 92%
    03:00 -2°C° 0 mm 0 mps 658 mmHg 92%
    04:00 -2°C° 0 mm 0 mps 658 mmHg 92%
    05:00 -2°C° 0 mm 0 mps 658 mmHg 92%
    06:00 -2°C° 0 mm 0 mps 658 mmHg 92%
    07:00 -1°C° 0 mm 0 mps 658 mmHg 90%
    08:00 +1°C° 0 mm 1 mps 658 mmHg 89%
    09:00 +2°C° 0 mm 1 mps 658 mmHg 88%
    10:00 +2°C° 0 mm 1 mps 657 mmHg 87%
    11:00 +3°C° 0 mm 1 mps 657 mmHg 87%
    12:00 +3°C° 0 mm 1 mps 656 mmHg 87%
    13:00 +4°C° 0 mm 1 mps 656 mmHg 88%
    14:00 +4°C° 0 mm 1 mps 656 mmHg 88%
    15:00 +4°C° 0 mm 1 mps 655 mmHg 89%
    16:00 +4°C° 0 mm 1 mps 655 mmHg 90%
    17:00 +3°C° 0 mm 1 mps 655 mmHg 92%
    18:00 +3°C° 0 mm 1 mps 655 mmHg 93%
    19:00 +3°C° 0.3 mm 1 mps 655 mmHg 94%
    20:00 +2°C° 0.3 mm 1 mps 655 mmHg 94%
    21:00 +2°C° 0.3 mm 1 mps 656 mmHg 94%
    22:00 +2°C° 0.5 mm 1 mps 656 mmHg 94%
    23:00 +1°C° 0.5 mm 0 mps 656 mmHg 95%
    Mostrar más